THOR ABLESTAR DEB, 20174

Orbit data source: Space-Track

THOR ABLESTAR DEB, 20174 is space debris in LEO originally from a launch on Thu, 29 Jun 1961 UTC launched from the Air Force Eastern Test Range (AFETR). Debris objects in space refer to the collection of defunct objects orbiting the Earth. Examples of debris include non-operational satellites, rocket bodies, and fragments generated from explosions, collisions, or faulty payload assembly.

Loading next visibility...
Identifier
20174, 1961-015MK
Orbit
LEO
Country
Flag of USUS
Related business
Manufacturer
Unknown
Mission
Spacecraft
Bus & Motor
Unknown
Mass
Unknown
Launch date (UTC)
1961-06-29 (65 years ago)
Launch vehicle
Unknown
Launch site
Air Force Eastern Test Range (AFETR)
Object type
Payload
Rocket body
Debris
Shape & HBR
Unknown shape, 0.1 m
Radar Cross Section
Medium (>0.1 m² and <1 m²)

Expand to show TLE details & history
Last TLE update: 5 days ago

TLE from 5 days ago
0 THOR ABLESTAR DEB
1 20174U 61015MK  26169.31676031  .00000206  00000-0  31026-3 0  9991
2 20174  67.0615 280.3583 0479985 130.2181 234.1910 13.28846385681944
Epoch: 2026-06-18T07:36Z
TLE epoch observation values (Epoch: 2026-06-18T07:36:08.090Z)
Latitude
Longitude
-100.23724°
Altitude
1,375.571 km
Speed
7.065 km/s
True Right ascension
18h 41m 25s
True Declination
0° 00' 00"
Sunlit
Object was in full shadow at epoch
Visualization orbit readout
Latitude
Unknown
Longitude
Unknown
Altitude
Unknown
Speed
Unknown
Apparent Right ascension
Unknown
Apparent Declination
Unknown
Sunlit
N/A
Visualization observer readout
Local Sidereal Time
07:07:42
Azimuth
Unknown
Elevation
Unknown
Doppler factor
Unknown
Orbital elements
Apogee altitude
1,510.842 km
Perigee altitude
788.209 km
Semi-major axis
7,527.662 km
Eccentricity
0.048
Inclination
67.0615°
RAAN
280.3583°
Arg. of periapsis
130.2181°
True anomaly
229.88598°
Mean anomaly
234.191°
Eccentric anomaly
232.0232°
Mean motion
3.32317 °/min
Orbital period
108.33 mins
BSTAR
0.00031026

Documentation

Showing up to 5 results
|